GFSMW_con_mucape_057.txt.gz
CAPE
136 139 33 13 55 0 0 135 402 249 874 752 748 779 352 489 437 1027 1646 1344 1278 923 520 511 880 332 92 62 629 118 104 235 72 30 40 33 133 105 190 315 622 978 737
221 65 30 16 58 15 0 249 610 316 725 452 562 586 501 243 284 1005 1310 1314 1099 785 405 637 1052 749 685 966 986 1093 485 377 40 100 419 32 11 172 103 172 116 227 864
118 115 21 3 31 97 84 350 747 390 517 200 351 949 395 578 430 638 1086 1372 1470 1227 1412 1139 1116 605 1027 872 854 936 962 178 60 75 300 22 84 237 191 149 176 223 515
88 149 22 0 6 34 154 384 741 475 649 208 127 571 633 791 303 428 1028 1505 1233 1325 1424 897 964 1192 1184 1160 1032 1256 931 86 443 14 148 215 140 104 197 282 242 113 439
206 176 65 1 37 54 54 492 730 494 286 693 113 268 308 689 622 772 1097 1296 1588 1515 1302 1307 1427 1090 703 647 981 1395 1347 1143 1149 66 92 12 65 397 531 303 256 150 206
290 278 204 31 70 77 95 391 926 426 341 299 735 103 213 403 620 850 593 1512 1728 1869 1908 1474 1408 1232 1141 1251 1121 1676 1259 1118 1385 946 1082 67 157 593 498 544 328 191 308
359 314 258 164 64 106 125 280 631 794 296 280 458 834 112 203 424 902 1416 1315 1525 1775 1915 1460 1846 1892 1409 1165 1239 1620 1644 1580 1352 1656 918 992 973 389 635 398 411 541 431
378 318 326 260 185 181 127 247 331 681 724 250 170 533 794 85 372 954 1374 1235 1367 1228 1803 1494 1660 1345 1672 1579 1552 1234 1417 1656 1306 1281 1919 1219 974 1420 865 190 217 333 533
366 313 418 313 273 228 195 223 317 322 852 658 99 264 1118 172 201 393 597 742 1283 1099 1245 1720 1502 1751 1797 1756 1781 1142 1597 1695 1785 1407 1178 1855 1246 1142 1264 525 271 453 543
521 501 479 438 243 259 245 267 420 336 704 761 526 101 360 1070 141 208 395 643 279 649 1378 2119 1568 2012 1711 1435 2069 1274 1700 1405 1807 1855 1966 1582 1562 1035 2016 1173 1003 966 581
419 291 350 478 444 212 225 332 698 524 561 547 825 325 124 741 816 271 61 528 430 1785 1936 1946 2164 2178 2077 1837 1669 1605 1838 1439 1721 1770 1736 1803 1680 1533 1768 2424 2070 1564 1069
416 283 194 205 414 421 360 348 556 825 801 734 639 829 263 236 604 561 155 0 613 667 1979 2009 1864 1847 1896 2083 2013 1919 1823 1702 1868 2081 1771 1863 2161 1977 1653 2022 1897 2019 2146
332 211 100 189 477 542 460 515 491 910 1001 1073 719 878 728 155 394 187 473 312 735 668 1455 1963 1859 1812 1654 1624 1936 1881 1880 1802 1852 1973 2116 2104 1685 2358 2485 2238 2205 2450 2219
275 246 163 150 487 501 606 512 528 768 1012 1162 1203 924 797 689 93 138 12 865 439 1975 1553 2134 1676 1818 1513 1767 1773 1982 2057 2037 1795 2180 2045 2015 2305 2095 2276 2609 2583 2341 2370
253 207 98 145 310 176 551 753 678 557 1031 1230 1332 1204 950 697 670 210 176 0 1199 554 1620 1625 2259 1769 1954 1549 1653 2147 2133 2104 2115 1941 1967 2335 2164 2446 2521 2596 2684 2802 2868
147 82 46 8 198 79 509 704 791 759 659 1290 1440 1375 1155 945 798 807 866 488 107 1541 1014 1255 1719 2268 2048 1972 1641 1584 2290 2354 2221 2258 2140 2222 2418 2321 2468 2654 2879 2947 3016
129 233 141 101 175 291 34 10 787 887 856 875 1383 1420 1300 1230 988 893 780 1091 782 476 1741 1654 1747 1815 2157 2133 2051 1680 1483 1655 2298 2352 2269 2279 2226 2346 2401 2279 2139 1994 2010
205 185 278 431 412 304 358 398 466 886 982 987 1094 1382 1378 1347 1348 1141 1012 954 1119 847 830 1449 1857 1930 1983 2375 2165 1986 1586 1437 1498 2421 2495 2302 2260 2372 2355 2184 2264 2241 2101
104 114 115 207 438 419 142 285 195 579 948 1083 1086 1326 1318 1392 1507 1350 1229 1013 1209 1337 1128 1471 1805 2063 2143 2349 2519 2184 1719 1358 1410 1613 1871 2190 2423 2458 2418 2187 2367 2563 2953
0 55 26 46 80 682 655 218 5 76 1007 1446 1324 1265 1265 1511 1516 1474 1275 1449 1090 1152 1557 1388 1721 2117 2177 2367 2509 2467 2135 1571 1235 1195 1565 2034 2230 2466 2592 2447 2377 2157 1824
0 75 185 160 297 504 908 793 186 82 889 1335 1505 1656 1350 1507 1570 1621 1502 1406 1525 1324 1378 1668 1681 2044 2371 2383 2622 2659 2373 1774 1257 1201 1077 1361 1523 1485 1383 1359 1394 1975 2272
0 81 64 64 140 736 1602 1740 1684 1308 1542 2069 1881 1675 1771 1485 1713 1599 1648 1536 1506 1554 1562 1816 1938 1958 2325 2568 2680 2744 2713 2252 1743 1300 1316 1235 1542 1727 1677 1631 1657 1661 1583
0 23 6 10 117 445 1032 981 1816 2247 2142 2453 2348 2259 2325 1790 1853 1752 1711 1752 1777 1781 1938 1989 2113 2166 2281 2614 2732 2791 2855 2656 2414 1919 1572 1751 1876 1903 1858 1790 2057 2046 1906
36 1 28 87 133 323 647 549 1061 2209 2276 2504 2916 2428 2570 2356 1896 2290 2054 2170 2215 2224 2138 2282 2279 2388 2419 2647 2959 3023 2927 3005 2831 2497 2223 1999 2000 1884 1730 2255 1928 1383 1283
5 6 54 91 109 284 550 738 696 1182 1983 2237 2946 2750 2479 2715 2398 2452 2592 2521 2538 2499 2444 2414 2457 2423 2633 2525 2792 3051 3114 3074 2880 2910 2785 2585 2363 2070 2017 2090 2656 2764 2544
17 9 76 158 210 331 486 724 1016 1166 1448 1586 2518 2923 2445 2875 2711 2535 2683 2888 2850 2858 2695 2622 2624 2636 2488 2714 2645 2779 3058 2974 2895 2724 2614 2513 2451 2363 2235 2089 2672 2766 3048

GFSMW_con_mucape_063.txt.gz
CAPE
0 26 12 11 29 43 36 78 175 301 303 241 201 343 439 481 468 335 785 781 717 503 418 408 543 410 48 63 103 39 68 158 102 78 122 176 198 217 533 597 527 504 526
0 10 4 96 79 15 6 15 85 193 446 234 175 324 525 477 470 525 806 800 534 171 355 364 483 60 154 255 531 181 445 96 26 34 43 13 86 159 155 352 375 512 566
5 13 25 100 68 12 5 0 50 238 463 312 173 369 397 424 453 712 887 933 765 557 270 398 461 297 242 501 542 242 135 24 20 29 13 2 0 89 97 96 138 255 344
30 83 50 65 92 17 23 0 0 221 396 383 200 331 398 299 357 501 790 1064 1158 996 338 445 697 580 502 728 579 662 232 19 29 40 131 99 98 39 33 87 111 207 186
90 87 87 2 0 17 24 0 7 78 197 212 150 270 313 235 254 327 738 1007 1096 971 804 825 972 674 705 698 479 929 575 83 306 27 45 24 7 65 151 221 141 191 142
125 90 55 69 59 106 16 10 16 64 98 102 45 154 300 436 299 192 421 631 1063 1081 939 986 872 735 689 811 391 861 937 622 684 329 88 44 118 203 261 262 358 268 329
253 117 78 68 85 174 67 81 52 63 121 68 74 29 144 337 552 433 217 601 860 1183 1085 1083 848 854 703 708 472 966 718 520 771 535 277 188 584 473 293 165 304 363 368
55 229 151 91 78 169 82 219 92 61 129 120 66 41 0 110 415 409 473 404 779 1121 1165 1139 971 1141 693 838 823 1186 1112 1087 678 983 1235 767 573 949 1193 544 201 236 290
166 157 220 164 107 188 204 173 142 49 85 112 71 50 3 6 198 314 342 488 710 1010 1193 1192 1083 1167 1024 873 1057 754 1047 1045 1102 824 599 626 863 623 621 1537 371 348 247
308 241 229 217 169 231 224 186 174 95 48 82 65 66 96 21 16 117 246 662 727 1005 1028 1262 1243 1181 1219 1171 952 878 1030 865 973 1427 1167 860 732 880 630 1523 1405 907 736
326 368 306 201 204 209 243 217 219 209 131 131 114 61 73 305 307 98 73 215 969 1124 1063 1097 1367 1316 1293 1254 1237 1100 953 982 996 1160 1455 1286 1258 1491 1523 1251 1375 1460 1582
205 335 278 242 264 209 171 207 252 261 266 230 149 73 18 7 300 342 237 86 51 477 988 1092 1117 1257 1359 1249 1160 1305 1274 1109 1071 1225 1119 1274 1238 1509 1841 1646 1505 1532 1210
250 187 243 198 203 198 211 279 257 207 206 255 230 160 14 0 9 189 373 301 63 27 307 621 1032 1198 1188 1240 1188 1282 1239 1386 1359 1272 1522 1322 1252 1706 1669 1824 1999 1868 1861
394 243 209 192 220 164 241 178 229 229 233 195 319 241 179 85 28 0 115 337 329 133 26 873 1218 1266 1178 1221 1255 1214 1208 1298 1388 1411 1437 1434 1494 1651 1638 1402 1714 1947 1819
599 424 247 162 85 100 114 59 57 130 185 227 234 341 305 244 142 27 0 58 191 212 184 115 1164 1495 1550 1428 1314 1353 1414 1420 1535 1576 1505 1456 1515 1671 1860 1778 1676 1701 1917
133 207 296 253 98 46 46 79 0 68 179 333 365 328 341 339 297 211 88 52 6 72 102 117 98 1000 1314 1492 1416 1399 1501 1542 1476 1379 1320 1357 1502 1587 1670 1886 2176 2239 2172
58 67 109 201 88 3 8 136 18 16 257 351 422 413 407 419 469 464 405 255 169 119 24 27 154 215 737 1225 1347 1264 1217 1079 1071 1149 1222 1290 1334 1549 1666 1667 1689 1867 2128
1 12 25 114 13 74 55 208 106 113 107 610 526 535 536 494 516 558 579 562 453 341 274 210 63 389 541 785 1199 1308 1353 1200 1155 1182 1260 1321 1339 1585 1800 1856 1887 1900 1833
0 0 0 15 109 63 117 167 256 224 320 171 399 768 756 743 731 721 742 724 700 636 579 500 385 285 260 811 1140 1254 1286 1213 1130 1145 1205 1377 1514 1591 1757 1879 1843 1874 1984
0 0 0 0 132 100 112 104 182 355 327 140 185 362 1017 993 987 987 972 931 897 922 893 823 663 564 431 256 893 1346 1239 1289 1314 1320 1266 1246 1325 1436 1506 1525 1454 1486 1720
0 0 0 0 0 1 28 104 139 155 309 538 226 495 599 1248 1367 1324 1216 1188 1250 1141 1070 1041 869 743 589 583 546 723 879 860 877 880 884 966 1101 1342 1461 1474 1442 1478 1488
0 0 0 0 0 0 18 54 88 124 372 519 541 264 419 704 962 991 1300 1196 1259 1104 1211 1144 1047 901 775 673 888 1149 1152 969 958 929 835 765 907 961 1066 1152 1273 1406 1420
0 0 0 0 0 0 1 65 21 49 65 196 132 211 498 739 635 668 711 1261 1245 1230 1173 1206 1163 1004 898 861 825 795 1047 1342 1308 1085 1103 1159 1066 906 917 964 986 952 976
0 0 0 0 0 0 0 0 0 0 0 119 84 35 53 403 1106 1189 1212 1166 1244 1284 1234 1208 1201 1077 970 1078 1039 1002 1204 1231 1260 1384 1463 1499 1471 1445 1388 1348 1363 1283 1199
0 0 0 0 0 0 0 0 0 0 0 0 49 49 104 252 1074 1368 1468 1245 1257 1271 1286 1259 1262 1214 1075 1010 1195 1261 1262 1331 1454 1550 1563 1569 1620 1753 1798 1796 1795 1765 1679
0 0 0 0 0 4 0 0 0 0 0 0 28 29 20 142 330 1375 1574 1378 1377 1395 1445 1461 1375 1310 1198 1131 1138 1364 1422 1442 1483 1499 1557 1394 1340 1342 1427 1558 1691 1971 1963

GFSMW_con_mucape_069.txt.gz
CAPE
128 227 111 237 167 28 124 252 539 804 735 616 550 880 965 884 945 1040 1305 1268 1463 1502 1561 1738 1281 1181 940 1124 1192 1032 1292 995 871 776 685 827 1053 1031 1052 1179 1287 1298 1238
123 106 160 184 171 113 189 382 589 865 892 608 741 894 1034 1012 1236 1302 1418 1391 1547 1434 1391 1577 1293 1306 737 1445 1356 1200 1175 993 561 574 706 335 402 513 734 902 918 1057 1067
89 87 131 129 167 190 263 376 630 888 1042 729 785 867 969 1009 1212 1391 1384 1436 1551 776 1093 1488 1383 1246 959 1359 1622 1310 1465 707 552 817 627 366 453 827 765 972 717 878 856
66 83 98 72 106 205 290 421 573 780 1067 956 846 965 948 967 1049 1334 1239 1543 1730 1374 1024 1389 1485 1346 839 1584 1643 1652 1266 685 674 641 726 835 868 682 708 753 791 911 818
146 59 58 94 34 148 253 347 495 675 1048 1109 1054 979 1153 1008 1243 1328 1807 1754 2206 1834 1455 1320 1568 1607 1652 1794 1850 1982 797 892 653 548 773 857 673 1040 1104 813 937 984 884
196 141 82 144 137 188 253 269 421 766 890 1056 1016 1094 1178 1221 1119 1212 1502 1491 1757 2564 1897 1640 1857 1863 1786 1925 1811 2071 2161 1908 1714 1327 1125 660 915 1140 1149 1083 1378 1304 1236
364 196 167 128 259 288 325 329 395 587 755 910 992 1011 1114 1448 1521 1563 1280 1545 1556 1856 2102 2148 2289 2067 1853 1989 1939 2044 2156 2060 1779 2015 1259 1039 1528 1523 1619 1130 1085 1132 1308
558 380 254 249 355 365 440 438 429 538 614 776 1214 1353 1136 1014 1057 1390 1089 1234 1312 1544 2111 2235 2207 1981 1900 1742 1819 1838 1754 1788 1753 2200 2279 1608 1638 1789 1864 2047 1226 1015 1034
759 572 373 317 370 437 495 508 563 589 566 623 1069 1072 1107 1101 1215 1262 1352 1132 1481 1356 1933 2203 2228 2053 1981 2009 1944 1596 2049 2257 2191 1906 2090 1867 1727 1642 1527 1900 1428 1384 1154
799 753 535 349 334 447 491 496 603 675 687 603 743 755 789 989 1106 1288 1489 1385 1495 1673 1643 2012 2194 2241 2218 2110 2101 2001 2009 2131 1896 1776 2197 2039 1446 1560 1605 1689 1860 1750 1838
390 703 669 458 364 324 372 418 537 626 627 591 900 789 629 617 814 862 1244 1572 1684 1791 1922 2067 2085 2279 2256 2356 2320 2108 1938 2127 2076 2008 2099 2244 2439 1654 1719 2079 2199 2152 2005
365 445 558 334 393 320 299 302 435 489 519 802 1069 816 900 676 578 690 816 1328 1645 1730 2003 2066 2222 2354 2287 2343 2425 2296 1868 2012 2062 2017 2071 1913 2018 2632 2570 2271 2753 2440 2591
228 368 429 391 247 323 281 189 252 414 337 518 560 746 749 751 740 812 726 876 1186 1596 1611 2152 2298 2389 2390 2456 2412 2378 2335 2279 2029 1998 2172 2127 2281 2508 2210 2639 2560 2438 2723
353 164 201 290 355 231 225 268 259 240 376 415 336 630 578 780 865 1340 1055 798 1085 1121 1304 1621 1928 2323 2436 2434 2400 2437 2484 2468 2269 2194 2147 2175 2294 2534 2830 2637 2800 2736 2740
238 248 205 164 212 192 251 211 219 225 301 555 587 620 863 795 500 758 1435 1121 946 1078 1175 1143 1272 1525 1639 1670 2190 2370 2371 2354 2373 2305 2247 2150 2017 1830 1962 2082 2377 2697 2871
85 254 223 263 338 182 109 133 146 150 147 213 664 912 1203 1202 1141 1070 1005 1412 1179 1057 1165 998 1053 1170 935 485 865 1625 2183 2329 2353 2397 2357 2285 1453 1291 1127 1184 1177 1424 2688
0 1 282 208 122 58 149 106 87 125 178 239 215 644 1021 1174 1335 1011 1095 1315 1310 1386 1256 1015 1125 1398 1557 503 483 889 1548 2134 2490 2519 2436 2243 1747 1768 2253 1605 1136 1070 1082
0 0 0 57 151 136 148 73 108 123 119 614 233 466 830 954 1170 1062 1144 1274 1062 1303 1374 1126 1209 1336 1209 465 343 630 1314 2078 2033 2242 2508 2516 2386 2259 2099 2206 2162 2171 2169
0 0 0 0 0 24 30 102 124 112 121 304 532 774 805 880 934 1085 1469 1158 912 977 988 993 1197 1221 1236 199 115 154 927 1221 2222 2160 2195 2513 2451 2174 1504 1888 2129 2225 2252
0 0 0 0 0 0 0 10 80 168 161 188 186 362 659 464 1256 1096 1188 1249 1230 980 817 723 861 721 1257 517 186 126 295 792 864 1696 2303 1182 1492 1554 1364 1409 1964 2185 2071
0 0 0 0 0 0 0 0 9 123 181 100 52 46 51 402 365 605 1576 1317 1299 1335 1298 1025 1069 1062 794 939 559 490 510 578 806 636 635 680 597 726 963 985 2263 2293 1878
0 0 0 0 0 0 0 0 0 0 4 140 85 65 28 65 255 537 424 1635 1825 1864 1679 1673 1320 1057 1152 795 862 875 785 685 850 1224 928 887 365 472 449 641 668 1116 1250
0 0 0 0 0 0 0 0 0 0 0 0 9 2 5 10 40 438 611 681 965 1674 1893 1603 1488 1563 1491 1270 902 978 970 885 780 941 934 656 482 224 486 603 509 503 427
0 0 0 0 0 0 0 0 0 0 0 0 9 3 0 4 10 37 214 474 573 976 1394 1668 1644 1633 1701 1673 1555 1004 1020 966 916 822 628 501 359 271 550 377 264 345 725
0 0 0 0 0 0 0 0 0 0 0 0 0 18 0 1 9 5 21 412 836 708 693 1187 1525 1455 1667 1603 1373 1426 1225 1001 990 849 746 863 980 1057 1093 1102 1216 1286 1009
0 0 0 0 0 0 0 0 0 0 0 0 0 0 2 1 7 6 0 0 0 69 604 1142 750 1234 1246 1181 1123 973 952 941 942 936 1074 1360 1239 1102 992 1209 1409 1380 1119

GFSMW_con_mucape_072.txt.gz
CAPE
159 158 480 462 562 249 103 302 473 881 914 954 877 961 1107 1117 1165 1305 1568 1607 1551 1616 1855 1413 1407 1257 841 1388 1615 1241 1176 601 851 638 455 443 831 624 474 586 559 849 866
221 220 551 581 396 205 0 266 466 1077 990 555 744 911 1068 1094 1235 1356 1683 1297 1625 1578 1399 1370 1419 1110 793 1474 1457 1346 480 505 768 468 513 316 623 506 417 496 474 653 624
288 405 679 578 287 212 145 346 731 1096 934 595 963 1599 1568 1805 2164 1713 1578 1585 1896 1731 1701 1916 999 1770 1177 729 1459 1289 1362 270 617 1298 630 523 476 709 450 660 383 754 554
541 429 545 554 322 258 290 452 921 1203 1164 1251 1107 1413 1026 810 938 1333 1311 1773 1854 1574 1542 1903 1885 1982 1100 1319 1520 1389 1222 1475 174 352 606 1545 1403 866 666 364 512 570 502
237 583 479 578 399 359 397 547 1092 1352 1334 1548 1226 1426 1500 939 1205 1116 2282 1891 2297 1643 1587 1867 2035 2026 1620 1699 1523 2046 1718 852 162 150 559 1121 1120 1820 1018 418 400 393 485
393 455 554 556 499 462 567 628 1098 1594 1625 1838 1997 1629 1401 1400 834 1239 3047 1227 2055 1708 1830 1710 2124 2044 1737 1866 1672 2015 2034 1481 960 506 947 726 1100 1062 875 704 719 725 870
900 706 661 612 566 451 604 737 1100 1542 1628 1689 1807 1836 1799 1807 1675 2115 795 1433 1551 1230 1893 2014 2012 1720 2077 1617 1451 2348 1733 2290 1320 1655 798 831 1345 1554 1548 1084 873 929 1071
1071 878 798 718 693 600 694 820 1104 1515 1535 1541 1781 1967 1862 1563 1456 1380 806 1183 1153 1360 1720 1967 1628 1797 1767 1668 1679 1622 1329 1441 1735 1831 2094 1171 1432 1610 1594 1594 1371 889 833
1202 990 907 849 806 860 832 1020 1156 1618 1617 1470 1639 1919 1963 1788 1189 1266 1411 1138 1225 1204 2083 1545 1496 1513 1952 2082 2284 1786 1811 1672 2015 1664 1727 1883 1458 1489 1464 1544 1537 1517 1123
1117 1233 1000 970 871 935 959 1084 1199 1539 1707 1599 1573 1646 1775 1885 1707 1583 1720 1411 1107 1611 1635 2226 2015 1682 1987 2395 2501 1508 1936 1919 1548 1198 1884 2220 1272 1661 1497 1413 1491 1559 1516
1043 866 1158 890 926 1010 1057 1087 1182 1304 1585 1610 1567 1563 1548 1579 1767 1685 1730 1784 1522 1653 2127 2219 2316 2188 1921 2210 2768 2080 1686 2362 2063 1669 1754 2273 2198 1569 1303 1571 1615 1641 1626
527 924 669 1183 740 877 983 1060 1177 1185 1331 1439 1634 1627 1673 1531 1350 1610 1563 1624 1719 1709 2158 2562 2368 2460 2174 2516 2576 2086 1656 1880 1929 2138 1962 1977 1626 2485 2364 1837 2024 1843 1869
857 432 719 793 640 538 751 825 941 1004 926 1229 1333 1405 1404 1419 1431 1361 1544 1506 1593 1732 1837 2121 2494 2403 2333 2771 2804 2255 2044 2262 2152 2150 2106 2212 2024 2145 1667 2197 1644 1768 2119
177 344 516 448 299 447 562 420 494 857 885 1098 1128 1268 1256 1276 1417 1499 1538 1509 1616 1649 1755 1978 2189 2280 1790 2225 2486 2677 2293 2218 2118 2437 2370 2129 2144 2418 2685 2522 2708 2637 2359
205 203 154 299 305 226 194 103 120 122 609 927 1199 1205 1312 1370 1402 1542 1787 1723 1648 1622 1621 1624 1765 2043 2112 1563 2156 2626 2517 2636 2535 2603 2718 2425 1761 1699 2077 2362 3127 3285 2615
285 128 118 175 186 292 259 261 184 168 239 754 799 1089 1500 1574 1598 1592 1538 1796 1888 1869 1761 1636 1439 1436 1282 939 1108 1783 2514 2531 2586 2576 2790 2712 1741 1564 1649 1553 1298 1299 2655
0 20 216 167 104 125 241 202 204 131 123 199 730 885 1125 1572 1695 1779 1788 1704 1626 2045 2299 1862 1772 1957 1830 505 531 827 1475 1744 2156 2442 2407 2478 1953 2019 2349 1504 1095 1108 1069
0 0 0 80 169 221 216 68 61 64 90 225 208 636 710 1050 1545 2168 1931 1868 1812 1854 1994 2169 2489 2469 2060 773 448 379 1299 1796 2266 2183 2238 2856 2821 2213 2185 2338 2123 2271 2226
0 0 0 0 0 44 121 95 142 146 98 140 163 112 317 1082 1209 1397 2062 1969 2043 1921 1759 1772 2302 2576 2563 1033 636 403 1055 1059 2086 2333 2662 2908 3077 2360 1601 2192 2188 2332 2221
0 0 0 0 0 0 0 0 121 88 104 122 123 137 118 175 548 1279 2072 2548 2165 2021 1764 1765 1856 1518 2258 1492 926 422 787 1178 690 1653 2514 1637 1767 1948 1755 2460 2576 2590 1988
0 0 0 0 0 0 0 0 0 0 1 31 28 105 125 72 98 415 1746 1843 2300 2563 2397 2111 2148 1947 1808 1781 1165 809 894 839 880 731 461 484 647 1071 1034 1339 2835 2430 1442
0 0 0 0 0 0 0 0 0 0 0 4 46 71 33 64 44 36 41 1006 2297 2528 2487 2815 2167 2021 2134 1274 1229 926 630 615 1113 1461 989 1208 587 243 588 643 649 1066 903
0 0 0 0 0 1 2 0 0 0 0 0 6 15 114 65 44 5 38 55 997 1547 2451 2865 1990 1926 1984 2204 1376 1091 840 678 619 1067 1156 1031 886 813 680 551 342 217 602
0 0 0 0 0 0 0 10 9 0 0 0 0 0 2 35 25 6 12 15 29 436 958 1511 2495 2636 1974 2150 2301 1659 1400 1022 840 876 832 829 798 825 868 663 402 201 629
0 0 0 0 0 0 0 0 0 0 0 0 0 0 0 0 15 1 0 0 0 53 358 1230 1661 1910 1832 1849 1878 1874 2328 2003 1079 916 977 1190 1194 1285 1361 1182 998 1027 844
0 0 0 0 0 0 0 0 0 0 0 0 0 0 0 0 0 0 0 0 0 0 17 44 196 648 967 1120 1193 1266 1152 1117 1231 1032 1114 1540 1682 1683 1650 1414 1203 1188 961

GFSMW_con_mucape_078.txt.gz
CAPE
118 141 89 44 19 302 570 1045 1960 2061 1724 1406 1410 909 1518 1737 1702 2400 1762 1370 904 2597 2443 2713 2563 2123 1362 540 3235 2745 1972 2362 1429 2654 1765 1613 826 737 1295 1070 931 1213 1374
71 184 121 191 167 357 582 1314 1913 2257 2058 1462 2134 867 2239 2082 1388 1567 2313 1864 1969 2577 2248 1774 2391 1888 2173 2891 2667 2402 2019 2279 1220 2001 1888 794 1293 858 490 1124 945 1163 898
101 159 117 265 198 254 566 1150 1991 2119 1890 2481 2303 1545 317 650 324 443 1943 2379 2413 2442 2450 2642 2915 766 2630 2762 2656 2100 1106 2627 1241 1485 2405 1295 1261 1675 859 840 908 871 1464
54 94 308 381 327 159 588 1125 1741 2005 1578 2482 1937 2531 1994 1304 2055 2114 2200 2398 2321 2302 1899 2888 3026 2419 875 1025 2980 2145 1943 1904 2165 1524 1281 1816 2191 2504 1311 1286 816 1586 675
268 91 115 420 447 182 270 897 1292 2287 1660 2181 2558 2283 2063 1655 1101 1447 1016 1877 2682 2302 1805 2612 3006 2021 916 533 1839 2729 2883 2918 1990 519 2419 2079 2598 2514 3019 1042 978 1360 1017
371 340 132 442 356 187 11 725 1304 2315 2536 1963 2358 2673 1991 492 234 1682 788 2379 2073 2487 2122 2057 2982 2319 1013 1445 1109 2674 2303 3361 3609 2778 2657 2627 1954 2014 2090 1746 1405 1594 1640
696 481 230 573 482 45 117 1045 1755 2266 2099 1880 2078 2325 2248 2169 1074 1190 643 2019 1296 1823 2602 3403 3449 2295 2660 2163 2564 3193 3159 2425 2816 3944 2458 2603 1656 2430 1980 2831 2106 1869 1488
646 651 489 826 435 171 225 1220 1993 2258 2359 2248 2613 2526 2665 1995 1633 713 1731 1120 326 1303 2102 2417 2930 2915 2650 2695 2911 2856 2748 2969 2598 2635 2913 2954 2097 2651 1443 2850 2490 2449 2491
513 354 756 940 456 568 284 1275 2252 2597 2599 2383 2800 2718 2545 2294 2486 2568 3304 1543 635 1724 1524 2138 2569 2709 2001 3076 2801 1935 2514 2486 2390 3175 2743 2854 1799 2178 1802 2366 2585 2323 2477
467 295 323 450 340 747 380 1303 2217 2571 2611 2417 2584 2731 2769 2979 2838 2997 3087 2817 951 386 343 534 1529 2784 2104 2290 2609 2735 1292 2114 1701 1978 2819 3080 1027 2632 2347 1955 2528 2488 2600
263 267 270 315 343 366 327 164 1933 2534 2677 2628 2545 2543 2605 2780 2827 2833 3232 2870 2394 1007 434 91 663 1419 2734 3045 2972 2205 1847 2275 2392 3174 2794 2866 2908 2296 2963 2377 2660 2471 2861
200 43 0 27 298 251 185 309 267 866 2215 2439 2574 2634 2798 2771 2920 2873 2868 3315 3148 2959 971 733 1104 1454 2456 2515 2862 2413 2095 2093 2568 2776 2428 2771 2385 3218 3304 2855 2822 3264 3117
221 218 117 240 117 152 179 237 229 274 558 1264 2499 2592 2534 2820 2833 3131 2910 3163 3237 3145 2555 2655 3267 3096 2424 2679 2368 2858 2826 2155 2308 2971 3135 2851 3133 3028 2645 3524 3304 2603 2913
261 231 187 199 216 150 142 222 134 130 214 569 951 1443 2376 2389 2425 2940 2987 2790 3321 3007 2781 2901 3099 2794 2901 2863 2644 2683 2957 2477 2513 2824 2991 3089 3023 3023 3142 2987 3129 2695 3173
110 184 304 142 140 56 25 85 168 101 105 192 295 267 831 2389 3128 2904 2707 3013 2910 2960 2987 2886 2644 2841 2499 2046 2613 2977 2803 2353 2132 2364 2680 2936 3260 2490 2934 2523 2947 2850 2975
30 97 97 156 201 143 145 184 98 188 299 343 198 29 379 857 1377 2278 2629 3405 3012 2943 2802 2880 2788 2523 2362 1387 1121 2093 2694 2831 2869 2422 2860 3230 2470 2044 1427 1317 1455 1541 3020
21 17 41 63 53 102 45 86 135 108 157 40 193 155 146 35 513 1540 2471 3029 2994 3037 2933 2888 2845 2796 2660 1647 675 587 1933 2666 2932 2912 2711 2710 1720 2222 2176 1243 1076 1040 1021
0 0 0 0 0 3 15 0 74 76 60 69 90 117 162 268 533 748 930 1350 2534 2778 2769 2670 2853 3051 2905 2143 1591 1121 961 2099 2056 2506 2804 2678 2441 2747 2769 2970 2466 1663 1656
0 0 0 0 3 61 57 65 22 34 30 34 62 83 246 215 203 206 525 637 837 1938 2238 2231 2442 2785 2984 2409 2026 1592 1107 1201 1727 2027 2090 2083 2936 2518 1963 2019 2698 3062 2960
0 0 0 0 0 0 0 17 53 88 86 10 39 32 55 39 209 201 188 352 528 742 1574 1961 2189 2058 2505 2689 2525 1898 1598 1533 1305 1230 1530 1563 1564 1401 1754 2167 2191 2129 2011
0 0 0 0 0 0 0 0 0 0 0 2 56 64 62 42 4 42 85 126 432 487 539 732 1930 2037 2185 2398 2281 2276 2005 1909 1742 1568 1402 1249 1115 1117 1114 1081 1887 2135 1927
0 0 0 0 0 0 0 0 0 1 0 0 0 16 43 73 67 18 11 33 53 60 122 352 1016 1769 2197 2168 1738 1697 1722 1881 2036 1921 1641 1625 1307 1126 905 746 499 669 1406
0 0 0 0 0 0 0 0 12 9 9 0 0 0 0 0 0 2 2 0 6 25 39 54 21 460 1611 1923 2013 1763 1347 1523 1537 1911 1797 1609 1356 1131 1035 784 633 532 458
0 0 0 0 0 2 1 0 8 16 13 12 11 8 0 0 0 0 0 0 0 0 0 0 0 549 1754 1896 2089 1848 1123 1050 1081 1278 1366 1404 1357 1172 1005 919 900 862 703
1 0 0 0 0 8 8 1 10 7 0 0 0 0 0 0 0 0 0 0 0 0 0 0 0 0 16 628 440 666 852 626 700 971 1128 1279 1289 1254 1217 1019 1096 1101 927
6 3 1 0 1 7 8 22 21 15 0 0 0 0 0 0 0 0 0 0 0 0 0 0 0 0 0 0 139 268 221 232 328 416 951 1175 1603 1855 1780 1416 1215 1227 1331

GFSMW_con_mucape_084.txt.gz
CAPE
42 20 181 275 229 173 144 130 174 68 233 428 381 301 256 382 604 368 173 525 936 1152 596 831 807 812 733 958 793 564 596 810 517 471 498 748 501 517 543 479 811 884 864
45 22 134 179 166 234 231 214 180 54 0 307 540 526 404 314 444 527 509 529 488 1134 1159 998 834 691 679 749 1113 959 970 841 648 570 616 296 159 95 387 515 470 604 946
38 25 6 39 68 67 292 258 323 105 7 68 636 599 491 455 544 626 715 836 722 1106 908 759 786 436 1166 1016 949 495 674 770 270 460 689 656 481 194 253 484 474 651 574
48 32 40 41 101 60 352 305 389 161 103 345 366 553 501 411 436 436 624 1083 993 977 878 820 893 682 874 699 1147 1416 1123 917 783 496 763 762 1013 440 35 314 434 166 564
83 53 28 63 69 122 302 259 344 306 328 792 609 472 470 442 464 447 434 1154 1023 1043 1162 975 718 648 571 646 773 1047 1002 1399 1168 952 1378 1382 1601 1204 1284 154 224 351 419
75 62 52 62 72 134 211 530 324 329 336 638 750 709 453 403 659 626 513 942 1030 1162 1305 1066 884 778 512 720 501 1058 926 875 1156 1065 1296 1189 937 1222 1271 1025 219 213 408
139 47 55 52 69 137 210 626 438 364 225 200 671 749 637 367 499 637 604 840 921 1061 1097 1133 934 668 559 399 642 1086 1134 969 477 964 753 1048 1122 1225 1350 1114 849 455 475
289 165 159 94 105 93 244 310 692 489 399 301 564 718 686 469 182 261 548 537 825 848 1092 1032 1047 958 984 729 680 1057 953 996 1244 527 912 867 633 972 1536 1277 1065 1215 1252
346 336 205 167 170 120 257 238 701 646 506 611 567 693 704 469 380 529 389 351 779 642 799 1066 1223 1035 865 746 1167 909 845 980 992 646 963 1066 772 868 1203 1506 1491 963 1057
345 399 292 247 303 167 178 290 290 790 746 714 825 741 763 830 408 476 473 351 545 743 792 1214 1102 1051 1125 819 1039 1165 752 668 699 412 638 583 1202 903 1030 1182 1148 1575 1142
416 377 272 201 262 266 180 280 337 397 510 827 769 1039 1140 923 862 835 828 887 779 690 759 839 726 993 1015 1142 1244 1127 822 923 739 462 1153 1351 1275 1457 1446 1244 1045 1222 1357
339 401 213 181 188 232 201 259 241 161 204 205 431 646 756 995 1110 1142 1143 1162 1041 682 590 541 529 319 652 942 1208 1081 952 1021 894 851 816 911 912 1130 1493 1543 1222 1565 1578
246 179 172 242 165 187 286 236 166 147 144 132 173 247 377 545 652 956 1221 1103 1034 873 712 679 222 54 409 860 1111 1148 999 844 901 1114 769 975 927 757 841 1061 1023 894 1296
272 254 149 192 171 88 136 191 104 118 111 84 71 126 260 321 450 703 830 963 1132 1056 866 849 719 328 237 615 764 1083 1098 1124 1320 1041 964 987 1138 1091 873 888 1076 942 1036
58 133 256 158 137 113 108 126 150 35 27 50 49 34 101 162 267 397 431 560 851 1102 965 873 881 1015 864 891 797 1311 1255 998 892 1133 1302 1271 1442 1598 1504 1378 1321 1163 1081
94 100 154 183 131 106 177 90 64 56 12 77 118 52 79 85 58 53 116 136 243 700 1198 1298 1367 1497 1788 1688 1454 1383 1338 1335 1223 904 971 1023 1240 1246 1363 1674 1843 1896 1261
59 165 118 163 311 238 78 68 76 95 82 108 100 74 54 33 35 69 76 67 52 295 817 1213 1297 1383 1405 1589 1690 1430 1326 1376 1404 1348 1265 1194 922 1057 1169 1279 1631 1781 1723
64 64 177 168 289 412 219 223 154 109 102 156 211 116 111 111 61 86 103 104 59 227 560 816 1162 1223 1396 1433 1455 1553 1438 1378 1261 1456 1562 1468 1358 1209 1299 1163 1121 1173 1335
33 33 44 30 43 76 41 30 47 73 108 104 96 58 88 50 37 9 93 90 132 172 246 510 641 893 1057 1143 1218 1302 1372 1408 1268 1090 1055 1430 1682 1849 1840 1552 1433 1293 1376
0 1 0 0 0 0 0 11 12 9 22 36 36 66 128 83 95 96 135 115 144 118 95 95 331 522 724 765 797 1063 1017 1105 1192 1174 1124 1189 1056 1183 1496 1449 1408 1374 1334
0 0 0 0 0 0 0 0 0 0 0 0 4 32 3 31 77 81 74 139 111 86 79 75 76 147 264 277 436 647 736 1004 1130 1124 1021 1031 1071 1093 1145 1171 1106 1161 1082
0 0 0 0 0 0 0 0 0 0 0 0 0 0 0 0 0 4 25 34 74 74 37 60 86 94 65 50 127 262 686 760 771 905 1100 1250 1305 1270 1290 1320 1354 1262 1080
0 0 0 0 0 0 0 0 0 0 0 0 0 0 0 0 0 0 0 0 0 2 12 34 49 65 75 98 86 145 216 300 400 664 982 979 897 1121 1210 1219 1318 1338 1309
0 0 0 0 0 0 0 0 0 0 0 0 0 0 0 0 0 0 0 0 0 0 0 0 0 0 0 0 2 13 106 91 48 36 32 327 551 519 506 573 670 932 1191
0 0 0 0 0 0 0 0 0 0 0 0 0 0 0 0 0 0 0 0 0 0 0 0 0 0 0 0 0 0 0 3 0 8 20 16 12 225 272 131 337 544 714
0 0 0 0 0 0 0 0 0 0 0 0 0 0 0 0 0 0 0 0 0 0 0 0 0 0 0 0 0 0 0 0 0 0 0 0 0 0 4 9 107 659 790

GFSMW_con_mucape_087.txt.gz
CAPE
132 107 201 238 219 231 360 227 11 143 114 377 317 329 390 420 389 441 513 705 880 979 714 648 912 817 819 853 668 595 628 710 536 452 590 409 586 535 517 541 504 629 782
62 190 195 198 177 166 293 306 183 328 279 217 244 261 219 299 449 455 352 337 652 705 739 628 594 697 677 711 809 1098 786 659 570 474 651 246 170 234 300 488 611 483 714
30 140 174 195 171 172 221 277 144 136 295 304 339 388 384 306 221 490 618 521 692 602 999 766 764 638 961 699 921 592 520 428 501 536 331 664 372 214 240 387 409 479 577
15 69 166 162 186 175 139 158 117 38 119 263 429 424 361 413 332 453 474 616 891 923 761 606 978 498 677 790 937 1432 1015 698 807 667 720 732 1092 458 56 227 431 510 485
43 50 78 153 209 161 184 121 132 64 72 189 334 374 402 358 303 358 319 701 967 867 888 548 672 606 621 654 788 887 945 1088 945 1042 1186 1415 1238 1237 1220 351 188 203 335
63 57 36 55 126 112 233 222 175 137 103 218 206 255 405 464 431 421 221 592 984 943 853 869 549 651 572 453 540 1162 775 711 1259 716 1091 1073 1124 1256 1195 1124 293 237 323
87 55 39 44 71 75 267 262 223 167 191 515 522 462 469 397 354 482 290 637 835 935 1014 920 796 694 598 614 503 605 1126 809 408 499 700 741 963 1123 1369 1086 1080 356 479
67 99 81 49 50 59 249 318 203 170 227 463 487 500 636 494 373 538 507 619 721 787 977 988 941 759 596 468 597 989 1117 899 1046 756 820 1070 594 926 1409 1281 1049 779 916
263 109 90 53 94 85 153 410 327 206 202 143 201 500 533 569 399 207 328 458 521 670 703 917 988 868 822 738 787 668 792 712 712 845 631 780 777 757 958 1111 1411 863 1019
198 280 141 163 79 80 221 249 558 352 275 281 208 376 519 492 406 270 432 340 249 534 580 692 897 1055 910 820 583 952 828 722 658 538 407 576 952 1124 1182 950 972 1269 1181
159 370 311 285 252 144 237 251 287 423 469 478 482 463 498 520 540 373 288 425 178 356 481 571 896 962 907 924 872 975 1012 880 532 693 536 1026 1119 1318 1380 1392 980 1263 1506
123 226 274 253 303 304 241 280 285 199 157 238 535 636 718 704 774 573 597 735 927 820 589 515 794 791 764 806 952 1133 1112 852 768 723 726 493 716 810 1176 1375 1026 1047 1114
116 153 233 168 215 274 236 288 276 194 86 107 168 322 377 449 540 596 768 751 900 878 729 591 576 557 333 427 702 1002 1162 1013 798 675 672 1001 672 867 545 630 723 777 756
196 380 236 239 256 224 205 159 156 146 80 89 82 100 168 185 224 245 393 608 604 817 885 821 593 589 222 55 363 703 954 1001 948 923 1025 778 776 818 914 823 755 922 950
104 197 135 231 231 185 240 185 160 93 78 70 63 32 82 68 53 119 135 255 415 472 677 938 893 705 637 447 423 521 724 937 948 956 888 1015 1057 1004 1264 1442 1328 1337 1423
20 34 193 175 238 180 144 103 97 34 0 38 40 0 14 58 35 39 51 71 112 124 249 570 973 980 894 812 948 955 878 1058 1231 1094 1035 1073 790 896 1068 1173 1160 1417 1488
24 46 177 162 175 212 190 144 230 67 33 19 42 52 62 47 58 31 32 52 23 40 39 205 553 838 987 1114 1376 1401 1359 1353 1272 1295 1231 1147 1171 1120 1014 837 767 880 988
10 108 118 63 164 147 258 166 214 119 73 66 63 42 60 45 76 47 29 45 24 16 8 40 152 292 538 774 950 1051 1180 1239 1235 1233 1211 1225 1149 1228 1330 1319 1269 1155 1054
22 36 80 96 192 378 238 208 162 274 243 136 143 168 102 71 103 76 80 47 33 23 11 20 62 122 199 385 466 521 768 867 1190 1289 1212 1202 1034 1074 1266 1211 1107 1214 1413
117 111 82 67 60 72 65 72 29 5 9 1 41 113 90 115 125 90 8 0 1 43 73 58 51 76 72 109 239 321 512 647 671 870 907 920 948 935 889 921 981 954 822
0 0 0 0 0 0 0 0 0 0 0 0 1 20 33 98 159 71 72 34 32 30 92 108 76 72 77 79 163 138 155 254 456 552 638 756 871 1069 1192 1249 1257 1092 1029
0 0 0 0 0 0 0 0 0 0 0 0 0 0 0 4 0 14 123 115 68 54 82 107 106 78 69 48 67 82 89 107 186 340 431 467 554 616 805 980 1177 1204 1133
0 0 0 0 0 0 0 0 0 0 0 0 0 0 0 0 0 0 0 0 1 6 12 21 51 83 81 84 91 78 70 35 58 91 146 194 243 296 522 529 418 467 611
0 0 0 0 0 0 0 0 0 0 0 0 0 0 0 0 0 0 0 0 0 0 0 0 0 0 0 46 74 76 71 53 23 28 62 90 50 32 97 64 40 150 211
0 0 0 0 0 0 0 0 0 0 0 0 0 0 0 0 0 0 0 0 0 0 0 0 0 0 0 0 0 0 0 0 0 0 0 5 10 13 0 19 16 0 72
0 0 0 0 0 0 0 0 0 0 0 0 0 0 0 0 0 0 0 0 0 0 0 0 0 0 0 0 0 0 0 0 0 0 0 0 0 0 0 0 0 0 0

GFSMW_con_mucape_093.txt.gz
CAPE
271 271 300 361 461 624 699 795 842 927 694 816 970 1023 1029 1370 1351 1051 1459 1652 1989 1517 2022 1694 1924 1798 1941 1760 2210 1902 2156 1646 1694 1526 1370 1175 1098 1479 1511 1478 1440 1559 1533
306 188 247 374 473 688 770 867 928 902 783 870 947 959 1148 1002 1255 1344 1303 1404 1649 2034 1692 1853 1864 1763 1674 1932 2351 2216 1562 1501 1446 1342 1513 1133 874 1034 802 987 1152 1517 1500
268 265 265 378 474 649 805 885 963 874 771 768 899 958 972 985 1233 1350 1266 1131 1536 1558 1968 1657 1564 1807 1797 1629 2026 1882 2200 1520 1747 1584 1478 1441 1066 1194 743 1103 1276 1671 1517
275 320 371 443 418 568 705 833 915 733 650 897 965 1220 1326 1643 953 1167 1416 1440 1531 1440 1779 1890 1756 1976 1864 2091 2269 2185 2133 2081 2097 2008 1659 1872 2262 1786 960 985 1021 1058 1153
209 308 376 507 430 516 580 703 783 683 550 794 1041 1038 1584 1040 991 1036 1504 1717 1966 1763 1667 1691 1993 1883 1451 1964 2220 2422 2665 2218 2060 2153 2120 2271 1828 2149 2014 1078 994 999 950
122 296 154 377 465 450 459 524 797 708 844 810 972 1230 1142 1440 1172 1242 1162 1268 1654 1826 1889 1606 1819 1745 1510 1825 1904 2348 2236 2253 2183 1937 2044 2101 2095 2368 2161 2039 2093 1291 1097
91 322 299 364 448 402 338 133 708 922 630 747 973 1094 1139 1337 1461 1310 1227 1071 1703 1999 1763 1894 1827 1502 1632 1498 1726 2543 2350 1863 1605 1846 1627 1613 1749 2256 2208 2289 2087 1377 1425
123 218 436 306 100 123 337 301 528 853 700 534 786 1056 1113 922 1095 1193 1239 1174 1747 2423 1864 1852 1871 1734 1720 1639 1728 1511 1839 2166 1914 2029 2233 1757 1636 1415 1753 2244 2301 1867 1768
222 197 477 469 326 50 306 577 631 774 591 542 659 885 989 1012 1087 1206 1229 1292 1472 1255 1727 1786 1709 1957 1821 1667 1504 1277 1896 2113 2018 1800 2031 1515 1428 1924 1639 1853 2319 1996 1746
261 203 291 423 419 130 43 279 219 612 832 549 677 1061 1224 1113 1032 857 779 1009 1197 1377 1508 1613 1711 1781 1897 1800 1738 1624 1643 1944 1760 1497 1733 1841 1303 1744 2068 2100 1895 1935 1864
277 185 194 215 240 116 31 268 434 691 510 165 374 643 1067 1040 1072 1113 1159 1135 1077 920 1200 1377 1354 1703 1738 1748 1780 1700 1795 1736 1821 1644 1697 1742 2009 1488 1795 2326 2063 1988 1948
322 256 188 194 312 225 202 271 630 751 712 524 234 232 758 805 1146 1338 1153 1267 1120 1041 1035 1026 1272 1293 1258 1709 1877 1755 1273 1690 1754 1796 1580 1521 1275 2015 2059 1836 2622 2165 2198
346 292 260 195 384 383 349 182 193 275 164 84 67 49 137 1138 1447 1369 1377 1292 1391 1492 1415 1245 1315 1280 1249 1401 1614 1730 1633 1418 1641 1473 1758 1653 1765 1888 1292 1656 1366 1179 1557
329 278 223 230 435 368 453 500 311 207 146 121 116 94 129 243 366 428 526 812 1276 1562 1549 1525 1396 1125 1066 884 771 954 1319 1490 1542 1623 1607 1770 1661 1848 2136 1895 2074 1694 1792
234 186 234 251 331 403 274 226 201 181 152 119 110 74 72 189 242 283 229 224 375 652 1120 1509 1411 1288 988 717 721 665 682 994 1391 1354 1429 1713 1555 1137 1140 1401 2141 1949 1928
136 195 405 428 624 689 260 315 325 249 181 173 103 78 67 70 34 103 133 123 134 181 257 624 795 828 589 499 603 604 950 1269 1464 1781 1931 1720 958 932 758 797 755 895 2070
126 118 266 603 322 538 361 177 203 176 147 121 65 103 47 41 33 51 26 31 11 28 64 52 94 139 180 281 341 446 1031 1590 2062 2225 2377 2114 1384 1289 1717 1236 845 774 767
109 122 130 274 461 479 521 311 119 156 159 69 5 43 35 11 29 54 6 33 60 29 11 1 17 33 14 62 75 131 224 751 1214 1520 1681 2027 2047 1809 1711 1914 1925 1986 2229
41 82 105 246 246 213 246 312 238 171 100 65 45 43 13 12 5 5 0 24 51 47 46 24 26 1 15 12 19 31 92 264 382 590 863 1030 1206 978 731 858 1727 1944 1976
0 13 61 113 92 151 186 163 174 179 250 162 94 113 93 80 58 62 10 1 3 5 6 0 0 17 10 3 6 18 17 0 0 94 292 418 338 368 455 570 783 1248 1757
13 51 47 76 86 112 78 128 112 169 230 208 154 89 67 47 171 44 12 2 14 57 8 4 0 0 3 17 8 11 21 0 0 0 21 65 154 252 255 209 221 277 343
62 66 69 39 29 15 29 64 53 42 40 50 30 11 0 14 103 160 49 33 66 141 59 32 0 0 0 1 7 19 4 0 5 0 8 5 13 33 103 131 129 125 87
7 0 0 0 0 0 0 0 0 0 0 0 0 0 0 0 0 1 15 70 106 59 69 125 8 0 0 0 1 37 48 58 61 35 30 34 31 26 40 37 23 17 24
0 0 0 0 0 0 0 0 0 0 0 0 0 0 0 0 0 0 0 0 0 0 0 0 5 19 3 2 4 3 0 0 0 0 0 17 44 44 31 21 16 5 3
18 0 0 0 0 0 0 0 0 0 0 0 0 0 0 0 0 0 0 0 0 0 0 0 0 0 0 0 0 0 0 0 0 0 0 0 0 0 0 0 0 0 0
28 19 0 0 0 0 0 0 0 0 0 0 0 0 0 0 0 0 0 0 0 0 0 0 0 0 0 0 0 0 0 0 0 0 0 0 0 0 0 0 0 0 0

GFSMW_con_mucape_096.txt.gz
CAPE
210 279 259 343 440 390 683 966 1114 1480 1688 1564 1094 1086 1165 1339 1122 1327 1880 1873 1880 1774 2120 1589 2042 1962 1924 2252 2250 1631 1949 1110 1180 1184 928 875 1096 1301 1271 1218 1366 1555 1467
253 333 389 408 530 751 631 878 1232 1744 1548 1374 1396 1023 1060 1198 1273 1339 1774 1741 1746 1990 2019 1835 1751 1932 1826 2218 2456 2501 1413 1106 1809 1139 1142 766 697 786 839 1020 1041 1501 1279
357 430 478 477 555 874 1119 1148 1382 1612 1608 1215 1343 1524 1847 1560 2104 1663 1681 1604 1699 1780 1990 1946 1708 1979 2237 1744 2114 2111 2450 1104 1744 2429 1758 1064 868 689 635 1047 1065 1557 1377
473 555 539 620 610 766 1161 1298 1502 1709 1630 1610 1177 1217 2102 1444 2096 1343 1370 1577 1674 1482 1596 2049 1926 2227 1656 1909 2260 2051 2063 2766 1564 1704 2167 2830 3039 1231 820 695 830 1296 1290
357 524 652 671 697 703 1023 1259 1562 1735 1277 1638 1260 1050 738 1819 745 1209 2003 1759 1913 1745 1473 2040 2046 2364 1803 2417 2260 2445 2606 1791 1929 1577 2012 2624 2415 2747 1447 678 630 885 997
359 449 610 722 876 735 921 1104 1579 1812 1548 1487 1570 1464 1072 833 1943 1885 1461 1486 1564 1877 1727 1835 2121 2202 1928 2062 1992 2473 2470 2455 2241 2046 2161 2021 2017 2029 1668 1216 1202 828 1044
372 455 645 749 983 936 958 1040 1496 1707 1513 1410 1294 1440 1301 1127 1007 1291 1941 1174 1977 1634 1918 1976 2084 1865 2224 1914 1723 1909 2169 2056 1842 2279 1675 1802 1967 2347 2398 1943 1418 1028 1184
432 376 637 421 676 1044 963 666 1276 1643 1580 1426 1582 1607 1609 682 1141 1062 913 2129 1632 1141 1621 1330 1391 1729 1784 1975 2155 1748 1465 1656 1754 1994 2367 1576 1697 1830 2054 2419 2299 1492 1320
741 488 710 900 1027 793 778 507 501 945 1487 1338 1439 1492 1664 1492 888 1009 1060 2793 1919 1541 1363 1081 1101 1160 1442 1837 2007 1346 1951 2105 2004 1729 1930 1858 1214 1424 1604 1997 2236 2169 1623
1069 731 739 893 632 336 296 279 797 953 1117 1063 1207 1213 750 736 686 1092 1261 1378 1420 1930 1406 1329 1184 1192 1307 1785 2262 1405 1657 2133 1837 1441 1499 1803 962 1255 1301 1409 1451 1757 1915
1007 785 899 1079 1012 438 175 176 266 377 1085 1069 1198 1078 926 705 734 729 901 944 1372 1775 1961 1542 1137 1312 1134 1231 1755 1648 1556 1924 1724 1799 1745 1764 1690 1191 962 1220 1374 1212 1224
412 435 802 869 820 847 321 129 173 200 411 1188 1079 738 906 826 729 781 845 1190 1085 1793 1617 1561 1630 1614 1328 1545 1565 1497 1297 1666 1451 1199 1443 1566 976 1504 1581 1160 1763 1965 1677
323 321 372 570 810 501 234 211 358 665 796 454 591 507 463 620 818 987 938 1176 1422 1289 985 1125 1235 1396 1567 1399 1666 1990 1750 1418 1204 1240 1224 1447 1336 1594 1027 931 904 748 804
497 438 332 347 473 655 809 712 551 477 405 158 80 123 140 246 538 766 1111 1213 1455 1602 1109 1176 1223 1313 1815 1724 1700 1774 1853 1668 1326 1311 1178 1080 1211 1583 1766 1988 1825 1911 1843
484 430 371 320 314 375 1034 1005 758 653 735 312 119 167 204 253 370 769 875 991 1129 1246 1485 1724 1889 1908 1821 1442 1840 1592 1501 1500 1393 1373 1451 1362 1147 971 1206 1417 2086 2308 1647
347 304 282 306 292 349 454 437 711 521 750 325 246 141 288 173 153 264 439 521 578 650 1050 1254 1542 1527 1194 660 431 570 1659 1695 1700 1849 2067 1832 1175 958 772 705 685 798 2300
167 145 170 279 467 306 382 546 447 251 228 196 118 76 56 81 83 33 46 102 220 268 256 428 796 404 290 147 202 286 1174 2068 2063 2021 1962 1724 814 1214 1357 1030 852 750 749
177 135 174 253 481 561 525 327 268 502 337 192 96 111 143 64 21 5 17 39 51 147 154 190 178 34 33 29 70 98 435 1402 1755 1753 1761 1956 1787 1163 1041 1686 1522 1577 1863
113 139 143 277 311 433 452 406 352 489 411 226 132 20 21 9 54 32 48 47 52 42 69 99 79 26 9 15 24 24 345 732 976 725 761 608 640 631 491 831 1808 1863 1821
13 4 96 172 166 196 276 302 335 247 194 346 246 63 33 34 5 2 5 7 21 40 36 20 28 9 0 1 6 27 26 19 60 433 90 157 164 180 170 165 220 803 1200
0 0 14 30 170 210 202 152 85 243 108 196 125 99 84 89 74 78 94 38 0 0 0 10 8 4 0 0 15 27 12 5 8 27 16 0 0 13 29 44 53 62 92
10 12 14 30 47 21 76 142 168 89 120 211 221 181 145 79 39 23 146 104 23 0 0 5 4 0 0 0 0 2 3 21 7 30 7 8 2 0 1 6 25 55 47
63 64 78 36 41 20 8 15 6 9 10 26 41 44 7 19 3 3 43 230 135 59 0 0 1 32 0 0 0 0 2 1 21 43 39 31 22 14 7 4 0 0 6
105 88 6 0 0 0 0 0 0 0 0 0 0 0 0 0 0 0 0 0 3 15 11 3 0 0 0 0 0 0 0 0 0 0 0 0 0 0 0 0 0 0 2
0 0 0 0 0 0 0 0 0 0 0 0 0 0 0 0 0 0 0 0 0 0 0 0 0 0 0 0 0 0 0 0 0 0 0 0 0 0 0 0 0 0 0
7 0 2 4 1 0 0 0 0 0 0 0 0 0 0 0 0 0 0 0 0 0 0 0 0 0 0 0 0 0 0 0 0 0 0 0 0 0 0 0 0 0 0

GFSMW_con_mucape_102.txt.gz
CAPE
36 55 113 171 192 396 895 1119 1114 2020 1418 1911 1033 1534 1531 1566 1907 1369 2841 2991 2621 2338 3529 3123 2948 775 1919 2883 2986 2818 3154 3110 2792 3518 2246 1653 1724 1897 1998 2179 1902 2269 2199
58 81 89 135 82 479 945 1926 2298 2454 2332 2243 2325 1811 1076 2048 2022 2554 2857 2499 2095 2783 2753 2745 2750 848 2033 3435 3156 3568 3724 2228 2364 2407 2599 2125 2068 1550 1301 2033 1936 1946 1269
49 107 121 63 210 754 1163 1229 1273 2718 2517 2196 1068 1813 494 1972 1072 2279 2583 2446 2094 2564 2020 2445 1737 2343 1581 2196 3388 3557 3727 2870 2031 2922 2991 2357 1687 1684 1377 1488 2037 1730 2234
136 174 103 82 83 489 909 1993 2007 2403 1885 954 1354 1982 1797 392 1505 1750 733 1066 2771 2305 2584 2552 2201 2052 899 1093 2856 3400 3708 3829 3066 2146 2037 3100 2400 2683 2214 1833 1677 2121 1877
133 70 105 61 269 345 523 1240 2295 2660 2486 2608 1966 2239 1924 1849 1545 1328 838 1096 2247 2595 2069 2793 2717 2642 1995 1561 1026 2603 4183 3740 3339 2703 2921 2726 3345 3235 1612 1881 1386 1700 2091
89 55 125 87 637 562 825 1396 2339 2706 2903 2598 2507 2227 1800 1500 1547 345 1169 1210 1969 2367 3000 2071 3182 3059 958 1432 2766 3246 3377 4160 3764 3634 2759 866 670 951 1323 1385 1494 1898 1719
161 162 122 177 442 808 1021 1519 2267 2429 2515 2170 2080 1947 2089 1538 1932 2622 909 1554 583 609 1032 2820 2361 2690 2466 2431 2535 2843 3434 3772 3474 3796 3140 891 484 327 956 2024 900 1041 1009
221 219 202 71 702 1189 1497 1431 2165 2553 2381 2018 2433 2631 3015 1877 1867 2532 1527 322 410 147 1117 2037 2149 2592 2586 2752 2764 2726 2589 3066 3142 3082 3270 3390 2234 1489 2675 2099 502 1017 745
73 195 157 272 219 367 968 1180 2069 2018 2402 2043 2557 2432 2059 2214 1924 1906 2727 2048 581 147 355 678 1638 2277 1832 2097 2149 2656 2538 1119 724 1788 3306 3377 2060 1363 1901 1991 2144 1458 775
122 91 97 104 59 1 195 1212 2327 2014 2067 1515 2071 2095 2137 2528 2145 2366 1699 1395 639 189 7 301 958 2149 1843 2402 2727 2286 2077 2100 979 1601 2285 2786 2436 2141 1509 2007 1269 1617 1251
436 166 111 538 36 0 1032 1444 1667 1754 2024 1489 1061 1951 1603 1861 2013 2154 2105 1760 691 294 467 819 1877 1761 2613 2534 2724 2699 2184 1405 1547 2109 1975 1798 2521 2221 1835 1538 1262 1538 1487
565 186 100 16 835 911 1521 1051 743 847 1117 1015 1341 1430 828 1094 1555 740 436 1471 1720 2078 2267 2652 1972 2208 1810 1920 2331 2318 2038 1949 2051 1988 2491 2265 976 2232 2881 2471 2335 2350 2260
1424 908 1029 1447 1831 1572 1215 1109 656 577 456 750 672 687 1440 1186 1511 1499 378 337 1418 2221 2184 2203 1828 1447 1977 1533 1938 2298 2109 1873 2255 2209 2121 2211 1922 1975 2094 2272 2121 1648 1500
1373 1611 1550 1661 1435 1669 1283 837 700 408 340 224 318 522 565 624 467 584 820 1154 1222 1093 1142 1862 1652 1579 2240 1672 1627 2035 1925 2216 2128 1966 2371 2355 2267 1698 1909 1623 1872 1637 1917
865 970 917 993 1460 1645 1496 1406 1081 797 349 389 447 419 419 67 121 286 244 635 416 722 1035 1312 1581 738 650 737 591 514 1081 1432 2040 1979 1800 1928 1155 714 778 1499 1881 1744 1612
472 481 547 552 795 974 1386 1201 1062 948 931 925 677 717 790 664 560 315 275 172 170 445 600 472 898 817 552 287 326 269 906 1335 1340 2015 2498 2703 948 935 731 495 484 328 1503
421 381 360 350 361 563 960 1474 1475 1365 1355 1392 1235 985 707 1026 626 512 429 371 202 161 203 520 413 257 188 142 143 175 317 1120 1390 1425 1721 1423 915 696 553 712 822 667 548
379 340 352 278 308 307 300 590 1075 804 697 655 687 492 577 359 239 212 119 71 154 110 171 250 193 112 65 55 52 52 62 455 1432 1611 1749 1525 700 323 201 234 976 1837 2129
313 222 175 210 285 294 341 431 551 662 481 468 366 286 207 124 34 49 198 131 127 22 204 238 96 99 52 38 8 3 116 1535 1098 193 152 269 181 105 76 55 69 421 1192
429 198 153 221 244 343 371 341 442 537 563 543 395 461 257 135 151 147 29 11 135 368 5 76 74 55 36 41 37 22 14 51 38 140 110 17 0 0 0 0 0 0 14
104 54 220 343 326 263 474 549 458 381 224 471 501 473 340 288 150 106 56 9 0 170 39 2 27 11 3 26 47 19 3 12 19 7 2 3 6 4 5 1 0 5 5
21 0 58 93 155 461 301 255 231 291 274 342 521 322 219 472 363 269 36 41 26 29 18 30 3 0 0 0 9 8 4 2 0 0 0 0 3 3 14 5 0 1 25
8 0 3 143 138 152 179 128 117 183 99 49 371 225 271 108 163 99 113 56 29 49 130 114 43 5 0 8 21 19 18 14 0 0 0 0 0 0 0 0 0 0 0
0 1 0 0 0 29 79 40 68 232 221 130 107 99 26 55 51 174 60 96 115 65 6 1 16 101 78 10 0 0 0 0 0 0 0 0 0 0 0 0 0 0 0
95 28 20 29 45 39 6 73 102 47 50 43 40 11 0 0 0 0 0 0 0 0 0 0 0 0 1 0 0 0 0 0 0 0 0 0 0 0 0 0 0 0 0
179 195 151 48 46 58 53 23 0 0 0 0 0 0 0 0 0 0 0 0 0 0 0 0 0 0 0 0 0 0 0 0 0 0 0 0 0 0 0 0 0 0 0

GFSMW_con_mucape_105.txt.gz
CAPE
15 45 13 7 0 10 62 721 409 558 454 314 826 679 433 781 1031 1217 1722 1370 1540 1779 1709 1571 407 531 1453 1675 1741 1887 2116 1935 1710 1429 1287 931 876 1032 1035 1387 1352 1315 1474
20 45 16 16 2 104 138 657 680 442 868 761 1001 846 564 1092 1059 1244 1587 1656 1141 1424 1826 1361 1190 981 1350 1855 1815 1732 2472 1567 976 1432 1814 670 756 822 944 1129 1426 1264 1409
24 30 17 13 11 233 638 786 1069 984 982 702 732 527 573 889 920 1092 1079 1266 1646 1482 1429 1216 821 1037 1084 1275 1486 2153 2324 2394 1853 1749 1930 1517 1204 794 630 650 985 913 915
40 36 50 66 71 134 401 713 1030 923 927 999 562 603 343 373 603 598 602 920 1268 1484 1501 1043 635 1150 371 296 1354 1856 2511 2310 2077 2151 1732 1675 1691 1467 520 663 724 474 781
26 45 38 54 98 329 244 373 642 859 897 507 699 649 446 379 695 629 485 600 865 1316 1336 1579 1358 1261 1010 1017 1382 1227 2209 2218 2052 1783 1123 1038 1339 711 744 799 659 610 665
85 38 94 76 204 298 766 488 709 713 1092 669 649 554 582 594 587 487 500 758 680 821 1332 1317 1313 1223 902 725 938 1738 1932 2198 2008 1575 1067 566 407 458 564 451 306 459 583
81 85 72 65 134 201 665 1042 925 976 1187 836 571 459 877 614 469 124 350 777 658 602 774 817 1289 1075 880 459 1036 1210 1324 1904 1902 1870 1226 846 1039 256 147 708 600 172 221
73 76 25 64 167 243 536 690 1189 1269 959 1361 1067 948 922 868 887 896 557 302 314 327 432 685 970 1065 1148 1137 1286 988 1302 1290 1450 1007 1646 1537 1208 1245 1014 671 374 38 212
73 91 130 84 343 521 914 1339 1285 1260 1383 955 1176 681 1065 893 874 992 778 639 465 297 266 439 688 846 1013 1279 1351 1041 877 1145 806 748 953 1604 1635 1402 1052 837 631 834 496
62 86 177 149 263 340 884 1249 1567 1505 1391 1130 1358 1177 981 1149 1082 939 509 563 390 177 465 316 505 542 957 996 1038 1303 1034 989 838 56 1314 1155 1129 1062 826 879 576 787 655
10 56 129 107 95 131 438 389 994 1169 1443 1368 1065 970 959 941 980 872 812 590 426 184 0 13 527 875 1068 1194 1020 981 945 722 892 1042 1121 872 922 1372 1520 1001 1310 938 1176
36 106 101 78 151 42 106 42 78 831 1039 1111 767 577 734 719 766 546 515 491 488 438 547 710 1259 965 1031 1014 1239 1304 1293 1178 798 755 1089 933 979 730 831 919 934 976 832
66 99 144 64 62 34 30 310 372 906 765 852 670 355 339 128 643 383 237 207 647 863 1104 893 1057 962 841 841 980 1059 909 853 923 788 929 973 1062 1142 658 457 386 900 820
173 167 129 108 45 116 580 598 675 693 566 549 274 199 306 325 478 511 353 334 338 322 565 749 990 702 619 775 797 842 754 836 974 1052 1018 1030 902 727 714 682 612 862 564
583 341 249 351 123 300 639 604 527 359 226 175 159 151 119 35 35 39 34 62 72 123 359 639 673 603 363 232 397 384 391 762 721 795 895 718 747 665 583 542 671 722 397
803 681 554 495 404 828 503 633 700 556 407 367 335 396 246 106 111 151 58 27 23 3 161 120 236 230 231 175 127 136 293 748 825 687 475 734 697 746 582 728 679 426 362
394 715 387 674 907 942 987 1020 726 658 598 595 622 518 414 301 449 374 254 121 6 36 49 23 7 29 41 83 107 89 163 271 397 712 929 673 487 462 309 235 464 830 644
356 288 311 356 613 847 1045 1121 1005 823 848 968 771 525 404 562 206 100 41 10 43 33 42 21 1 4 4 58 58 46 81 209 698 632 647 534 392 277 122 73 132 430 629
295 300 337 386 348 355 489 944 1285 1111 900 844 779 453 346 242 160 111 86 33 26 36 61 66 68 49 32 42 57 52 202 511 257 117 148 104 43 16 4 10 10 6 88
212 170 167 288 386 362 444 606 671 624 592 647 596 494 363 245 145 87 32 13 4 25 54 24 8 4 0 0 0 0 13 31 64 130 126 57 25 5 0 0 0 0 0
82 117 216 238 256 348 636 371 526 492 420 631 539 459 343 255 145 120 65 32 18 0 0 4 0 0 0 0 5 1 18 19 20 17 30 19 7 0 0 0 1 0 0
20 148 188 241 239 216 252 377 390 382 386 193 429 393 448 384 270 202 203 47 9 1 0 0 0 7 8 0 0 1 23 40 18 0 0 0 0 0 0 0 0 0 0
0 45 59 68 83 122 86 128 86 85 70 131 247 347 253 112 65 101 67 84 92 87 57 22 5 30 3 2 0 0 1 7 18 12 0 0 0 0 0 0 0 0 0
0 0 0 30 70 62 0 38 16 39 13 48 42 38 20 47 69 68 21 24 47 117 15 14 8 13 52 45 5 3 6 8 3 0 0 0 0 0 0 0 0 0 0
15 0 0 0 0 0 2 19 32 34 24 19 33 21 15 19 14 7 12 0 1 2 6 3 0 0 1 0 0 4 4 1 0 0 0 0 0 0 0 0 0 0 0
7 4 0 0 0 0 0 0 0 0 0 5 1 0 0 0 0 0 0 0 0 0 0 0 0 0 0 0 0 0 0 0 0 0 0 0 0 0 0 0 0 0 0

GFSMW_con_mucape_108.txt.gz
CAPE
21 50 160 65 99 70 134 49 171 499 348 565 544 292 538 950 950 1285 1370 1035 1330 1570 1432 1443 397 888 1161 1827 1739 1689 2173 1354 874 1195 821 708 678 760 866 1266 1439 1207 1250
38 41 33 56 78 102 148 138 118 292 276 519 627 606 640 889 720 887 1318 1439 1011 1235 1206 1214 1056 1004 1079 1232 1624 2229 1969 1862 1989 1270 1105 516 568 629 790 844 1306 1186 1182
28 3 21 28 23 150 306 201 167 269 648 553 438 466 681 783 719 1018 985 1052 1290 1287 1096 911 801 766 823 930 1348 1757 2123 1639 1634 1491 1676 1198 835 797 688 804 896 1131 1114
32 16 17 28 74 110 237 216 223 459 552 386 370 324 464 433 520 706 635 734 800 1182 1216 911 782 987 329 531 1055 1315 1921 1695 1527 1469 1478 1215 979 1110 468 534 688 675 804
18 22 53 26 84 176 237 321 339 505 596 361 339 320 270 288 505 445 434 563 678 992 1438 798 836 1001 707 778 1202 1639 1705 1798 1347 977 593 682 734 568 711 594 511 493 652
24 53 42 31 57 127 265 336 310 352 507 381 395 477 273 310 482 407 515 382 511 739 1178 1303 1169 775 968 569 691 1424 1526 1708 1565 1061 524 616 359 338 367 503 426 339 465
130 68 51 76 50 62 169 292 249 283 480 355 510 408 494 444 397 369 299 533 524 527 737 883 986 884 662 111 440 1142 1040 1273 1344 1603 1308 714 780 165 262 581 423 296 121
126 85 18 86 94 270 196 263 220 216 709 579 329 303 620 485 396 135 133 536 537 459 429 531 941 920 920 952 1056 1005 894 1034 882 744 967 1434 1188 855 774 583 543 624 510
127 120 65 90 161 280 527 445 352 360 762 505 335 437 460 529 583 586 633 386 232 270 233 513 580 722 800 907 1012 990 849 802 853 524 731 953 1203 827 864 618 443 680 513
104 142 128 217 218 308 468 1026 554 596 667 814 667 718 753 558 651 749 575 548 382 153 183 426 403 503 645 802 946 922 785 736 772 548 563 941 677 965 900 676 711 711 563
54 174 203 333 386 484 600 565 854 839 876 701 856 490 943 854 794 622 312 361 258 211 188 327 87 377 611 820 819 774 747 662 398 566 586 660 757 689 839 762 845 531 796
64 189 197 262 154 190 190 119 352 691 973 965 913 888 774 715 760 672 573 530 295 264 108 25 333 702 849 872 768 743 1055 738 845 542 641 696 852 640 607 600 464 520 602
94 157 131 103 99 88 38 50 212 275 614 765 619 402 283 259 560 469 406 458 384 424 455 594 688 791 706 711 678 773 758 772 708 743 612 693 725 691 733 468 398 531 561
100 130 136 116 96 142 60 43 213 285 458 505 481 375 224 164 335 361 226 220 377 319 539 616 798 684 449 482 542 567 382 463 475 586 776 782 808 719 546 599 603 548 621
82 131 132 112 145 126 421 170 418 404 465 382 300 315 288 248 213 219 199 128 88 133 135 415 524 699 543 184 49 92 166 288 242 475 493 477 438 480 449 349 423 543 533
337 157 131 155 100 154 117 316 416 409 437 238 186 142 131 102 108 99 71 21 41 42 135 156 259 318 242 91 72 42 84 331 523 460 320 244 309 352 318 296 492 538 400
503 280 262 233 363 203 183 27 176 348 292 331 280 312 211 196 207 253 221 147 69 74 62 36 38 33 3 0 0 22 71 137 346 460 611 414 299 236 235 175 357 524 412
870 600 482 363 312 210 440 206 132 332 331 305 354 433 418 437 332 239 158 68 98 125 48 6 4 14 20 7 0 31 31 157 306 356 260 201 204 135 98 92 93 307 328
306 491 612 746 679 530 616 714 556 476 646 634 641 511 495 414 303 209 137 30 106 99 29 12 1 6 6 2 5 138 220 246 175 179 225 120 66 30 2 4 9 15 24
70 101 162 251 641 577 817 988 985 871 887 889 755 671 585 576 316 194 132 67 91 111 85 42 24 29 0 0 0 0 1 37 77 77 78 61 45 15 0 0 0 0 0
114 116 163 524 380 297 407 445 616 736 743 857 845 674 490 503 493 233 143 125 113 108 64 22 10 0 0 0 0 0 0 0 0 14 25 9 0 0 0 0 0 0 0
68 203 236 201 274 398 378 388 452 464 415 473 432 714 432 508 304 282 140 97 100 41 7 13 12 3 1 8 9 0 2 2 9 19 29 15 0 0 0 0 0 1 2
133 168 204 186 275 216 316 436 314 308 348 316 220 274 431 515 476 309 114 156 127 122 68 39 19 15 19 19 22 19 9 12 14 27 8 16 12 0 0 0 0 0 0
2 48 116 133 95 94 59 64 89 89 70 71 107 163 206 160 116 159 146 58 50 52 23 42 37 32 30 28 58 29 15 12 1 0 3 2 0 0 0 0 0 0 0
0 0 0 0 11 21 12 26 27 36 47 28 25 54 70 30 9 9 0 0 0 0 0 6 6 9 17 9 0 21 36 32 10 4 6 11 7 0 0 0 0 0 0
0 0 0 0 0 0 0 0 0 0 0 3 3 3 5 7 1 0 0 0 0 0 0 0 0 0 0 0 0 0 0 0 0 0 0 0 0 0 0 0 0 0 0

GFSMW_con_mucape_111.txt.gz
CAPE
62 82 115 53 76 62 72 115 382 392 460 391 432 576 575 636 676 933 1043 1271 1028 1235 1109 962 408 855 1225 1414 2054 1826 1349 1298 1079 1009 840 655 517 598 917 865 1059 1106 1095
28 149 102 63 59 0 13 47 335 300 355 345 240 399 564 714 689 864 1057 1034 1105 1225 890 973 777 765 963 1306 1831 1954 1546 1502 1522 1223 538 362 419 429 498 691 913 1092 1140
13 154 115 61 31 27 35 38 284 229 248 340 458 402 590 635 651 820 873 976 1150 1330 1016 846 705 689 697 1060 1345 1764 1539 1316 1310 1399 1094 725 667 684 475 523 559 698 915
21 122 100 53 72 47 91 15 191 167 322 328 358 434 415 455 520 668 787 782 835 957 1119 894 624 598 380 800 1049 1372 1591 1138 1090 861 911 752 747 835 362 449 582 574 594
17 98 87 59 69 98 138 56 119 323 327 297 289 255 317 362 381 447 486 509 663 831 1152 836 675 810 564 721 1166 1393 1438 1330 737 554 425 503 479 398 493 421 368 455 509
58 63 95 75 63 81 166 103 130 379 346 265 236 219 217 278 399 406 381 356 500 640 1096 1128 827 771 774 586 863 1300 1403 1280 1029 566 622 464 212 248 239 295 242 334 334
42 70 85 60 83 130 196 173 127 236 351 249 294 309 275 224 209 323 306 385 327 379 643 976 1104 766 614 342 147 975 897 1082 1166 1110 750 586 268 186 424 466 312 319 135
41 73 104 97 83 130 189 214 164 166 261 270 263 395 315 258 276 339 323 232 400 335 444 576 1034 703 491 428 819 894 813 941 766 575 973 1068 691 552 553 461 411 527 443
56 96 117 121 94 74 180 202 169 108 247 245 344 386 326 405 405 346 98 222 455 432 287 384 701 780 754 773 845 920 610 627 681 618 444 889 824 546 516 436 308 401 286
94 57 106 149 137 141 146 196 189 141 168 424 441 242 273 461 429 481 524 435 277 213 128 255 411 500 561 597 839 919 772 594 577 596 168 782 618 756 702 615 605 552 582
62 86 33 165 180 242 256 321 268 223 309 573 513 319 427 418 460 624 594 423 391 240 59 160 376 296 381 453 715 684 720 644 397 363 530 412 629 504 577 530 734 444 539
82 104 160 257 241 257 316 451 494 544 563 563 651 628 620 618 665 681 531 230 218 183 3 34 235 7 438 770 703 698 670 620 510 432 370 520 596 761 561 620 518 323 518
67 119 179 236 243 259 326 511 567 538 641 654 529 390 417 415 325 518 604 518 449 246 287 327 287 654 694 692 696 661 657 753 794 643 611 564 644 704 637 515 463 425 504
64 61 150 214 276 288 287 289 97 86 281 436 402 327 218 210 148 156 262 366 325 377 443 461 594 726 545 442 368 373 520 528 443 552 609 659 674 674 525 411 421 535 502
83 104 142 156 153 93 73 44 76 131 168 324 184 177 257 273 193 152 208 166 194 105 155 401 451 503 495 435 234 87 174 202 263 420 470 452 284 267 217 175 228 222 382
43 65 106 104 108 114 140 78 146 210 227 160 213 197 185 228 159 153 136 100 67 30 96 116 201 180 234 321 175 89 52 120 247 333 285 240 152 160 269 225 152 335 445
171 160 164 132 135 126 228 369 270 210 228 205 130 144 143 196 183 148 129 96 63 60 78 98 79 60 38 5 0 0 34 107 258 400 366 239 134 160 144 120 226 243 185
361 201 188 221 214 225 143 104 98 163 176 281 187 202 143 178 304 333 284 206 162 118 77 57 56 26 19 21 26 3 2 31 157 223 303 256 174 116 78 67 74 173 144
450 528 254 244 258 194 94 85 117 48 111 257 308 261 294 373 379 298 235 189 171 137 79 54 30 12 11 31 45 127 145 148 149 147 148 154 133 83 41 23 28 20 14
38 95 153 352 357 280 188 131 175 45 61 37 144 393 462 433 298 289 228 161 189 158 109 65 38 29 19 1 2 0 47 101 94 71 77 83 74 65 43 20 1 0 0
0 46 318 156 332 395 447 461 481 416 300 295 339 401 524 429 496 341 148 97 120 156 168 108 58 27 11 4 0 0 0 0 0 3 0 0 10 27 30 27 5 0 0
23 167 296 258 447 467 457 456 346 323 332 343 404 411 473 404 412 254 250 162 184 127 143 127 34 2 0 0 1 4 1 7 14 3 0 0 10 20 18 8 4 0 3
83 48 113 156 347 382 276 249 203 322 392 347 399 312 385 471 425 386 336 241 145 139 60 39 20 1 1 8 3 9 19 8 5 38 14 12 25 39 29 26 13 7 0
6 18 23 3 65 93 59 67 161 169 194 158 234 268 274 350 456 346 291 142 117 130 94 70 78 96 62 8 44 31 46 53 25 24 65 48 33 6 7 4 0 0 0
0 0 0 0 1 1 3 19 25 17 25 27 47 84 152 187 147 112 51 148 195 31 13 23 2 0 29 28 20 17 2 26 64 50 22 13 24 17 17 3 0 0 0
0 0 0 0 0 0 0 0 0 0 0 0 0 0 2 15 18 26 10 0 0 0 0 0 0 0 0 0 0 0 0 0 0 0 2 0 0 0 0 0 0 0 0

GFSMW_con_mucape_114.txt.gz
CAPE
135 107 113 135 46 98 189 268 397 527 309 383 314 440 492 567 349 652 883 815 882 1047 1006 764 497 1098 1101 1701 1667 1325 1141 1238 724 834 635 622 465 546 558 619 777 937 1056
124 113 98 91 39 131 181 190 257 316 315 272 322 373 404 527 545 800 917 914 919 1028 690 563 496 864 876 1435 1591 1477 1178 1113 836 1097 365 315 362 403 630 728 792 820 890
60 97 105 36 34 89 84 62 206 256 243 243 235 363 507 535 550 702 861 997 993 948 917 784 672 638 651 1043 1306 1493 1194 1230 1064 955 851 614 522 488 459 459 528 633 709
55 94 114 56 29 6 20 33 153 191 237 219 205 374 430 457 425 511 599 755 919 950 886 817 593 394 356 863 1050 1260 1294 854 1056 658 625 525 659 717 500 415 468 520 522
33 101 133 105 49 34 0 0 72 127 167 236 205 240 296 348 385 408 495 641 702 616 974 898 549 522 285 736 1096 1174 1382 1149 500 443 388 408 381 362 449 535 376 383 430
44 99 127 129 94 57 5 0 33 131 178 203 191 205 217 233 283 342 311 415 438 548 825 980 448 674 439 452 890 1068 1133 1086 562 462 443 375 208 260 364 360 242 210 411
34 51 82 87 71 91 103 29 44 117 206 224 213 204 183 201 232 246 280 324 312 366 497 869 831 784 534 361 281 738 805 944 1116 734 506 518 205 301 448 491 394 368 381
24 16 30 79 68 99 141 122 49 110 248 247 195 173 196 204 194 177 223 265 262 302 265 537 828 849 602 285 49 687 563 713 747 472 793 788 501 419 406 392 348 662 408
13 8 36 76 79 116 139 165 133 78 176 252 217 183 258 251 161 168 310 204 158 328 267 267 544 783 564 548 604 738 393 431 419 333 351 851 780 474 343 301 170 695 694
21 30 58 47 71 111 151 153 155 110 114 190 165 173 292 257 282 329 315 181 234 284 336 282 272 579 575 480 572 687 734 563 451 451 291 555 567 600 568 569 459 406 471
35 33 34 35 59 92 122 171 178 144 124 165 169 219 337 205 398 335 413 413 325 232 170 144 139 309 296 370 432 578 651 550 429 342 371 592 379 398 480 569 504 364 328
16 35 45 70 64 132 118 139 177 182 165 210 213 344 278 297 402 433 456 300 225 195 168 101 168 302 172 476 534 493 675 634 567 415 311 365 448 542 498 367 615 424 217
25 39 66 72 117 166 229 233 213 219 276 241 354 464 339 533 503 563 399 289 229 233 200 102 12 96 495 573 596 542 479 732 706 754 577 638 518 626 560 556 387 325 322
50 99 136 144 122 159 255 272 243 299 343 363 367 376 490 444 305 81 75 97 151 190 198 250 338 408 575 547 538 426 294 314 470 616 658 663 844 768 624 442 377 300 370
96 120 168 163 103 159 241 283 329 319 333 372 406 353 195 200 172 146 70 98 115 121 109 196 247 355 453 344 304 238 116 148 224 367 625 464 362 318 173 336 264 246 408
119 117 89 155 179 236 234 212 121 74 145 286 320 193 148 109 155 186 146 96 116 117 72 85 103 137 137 168 205 186 72 0 61 308 402 290 180 131 105 109 135 162 221
158 167 156 178 139 161 168 114 93 124 113 100 126 135 157 125 126 131 131 110 87 73 78 38 13 66 85 70 13 4 7 11 53 172 220 133 107 122 60 71 82 106 124
143 153 158 181 164 172 255 207 131 90 88 98 108 108 125 95 99 138 126 98 81 54 66 56 66 59 40 27 22 13 3 5 13 80 75 97 104 82 70 59 93 129 120
374 236 153 230 252 201 177 137 153 117 102 88 123 132 117 102 118 125 96 151 146 143 131 80 52 44 36 32 31 23 19 18 27 79 86 73 70 47 56 64 64 52 24
113 219 289 220 263 235 135 57 108 146 71 138 181 211 172 140 101 108 133 148 147 130 110 85 55 41 26 0 0 0 1 44 55 68 71 68 34 28 52 34 30 31 19
132 215 223 335 226 281 332 144 134 81 68 40 10 24 145 190 158 146 127 85 153 160 141 100 145 73 54 23 3 0 0 0 0 0 4 9 7 0 0 0 8 23 17
145 141 218 213 148 220 380 351 220 172 251 211 93 33 18 18 163 219 264 168 86 143 113 87 120 34 36 16 0 0 0 0 0 2 5 0 0 0 0 1 5 11 33
38 60 76 136 142 167 165 304 332 368 216 118 95 61 18 153 258 318 244 164 185 209 163 124 89 53 18 6 0 0 0 0 1 3 17 27 13 13 9 42 34 26 20
23 17 6 19 143 59 75 98 165 306 246 233 206 151 171 215 286 291 222 303 197 186 143 82 86 61 21 10 31 14 14 17 25 34 34 46 53 45 47 43 13 9 3
0 0 0 10 1 4 8 7 10 5 0 0 11 155 108 137 269 209 182 154 140 106 136 70 73 140 36 2 1 7 16 10 11 12 28 62 47 44 32 24 14 5 8
0 0 0 0 0 0 0 0 0 0 0 0 0 0 0 7 12 18 7 2 1 19 67 0 0 0 1 4 1 0 0 0 0 0 0 0 1 0 0 0 0 0 0

GFSMW_con_mucape_117.txt.gz
CAPE
193 251 340 322 308 406 487 593 751 968 1075 1204 1267 1284 2044 1494 1473 1142 2027 1670 2110 2208 2311 1725 1202 2275 2465 2991 2866 2302 2712 2270 1752 1802 1357 1287 1137 1117 1067 1171 1308 1488 1713
158 214 315 275 336 404 494 664 839 1120 1219 1112 1217 1252 1474 1429 1394 1905 2154 2118 1980 2258 2108 1877 1381 2160 1798 2858 3058 2856 2234 2188 2161 1896 1122 951 1022 1135 1070 1375 1435 1586 1497
175 231 288 255 337 354 470 654 1032 1219 1187 1080 1090 1364 1439 1921 1596 1851 1921 2081 1986 2167 2117 1945 1900 1913 1126 1993 2812 2709 2766 2084 1721 2042 1838 1316 993 1455 1312 1528 1452 1660 1722
149 238 277 260 297 324 406 585 905 1131 1076 1073 1213 1640 1277 1163 1971 2472 2393 1978 2070 2087 1927 1789 1446 1589 457 1932 2398 2476 2478 2557 1982 1446 1211 1786 2261 1530 1200 1332 1296 1280 1337
38 156 266 284 276 257 305 408 769 938 958 1124 1241 1015 1821 1173 1535 1564 1869 1836 1666 1895 1864 1745 1552 1052 894 1958 2547 2546 2787 1968 1388 1424 1476 1343 1022 1173 1384 1042 1100 823 705
11 86 200 266 261 214 236 237 533 928 1000 1178 1148 1342 1568 1539 1266 1641 1360 1666 1454 1369 1927 1983 1428 1633 1493 1649 2132 2539 2581 2322 1531 1188 1297 1209 983 981 852 940 1217 1224 1195
0 56 183 264 253 194 232 248 343 711 854 997 1015 1122 1260 1356 1420 1615 2241 1532 2137 1657 1821 2278 1538 1730 1846 1426 1020 2121 2316 2451 2197 2095 1503 1159 342 669 1394 1340 1269 1061 1075
0 17 172 207 236 205 283 248 267 525 833 874 1015 1096 1167 910 975 1327 1499 1222 1161 1208 1417 1567 1955 2111 1592 1310 889 1096 1692 1778 1979 2065 2138 1925 994 839 1375 1243 961 1011 1225
0 18 134 98 310 262 330 302 314 464 804 812 1025 1075 1112 1059 991 1195 1125 1074 1233 1109 1241 1128 1383 1793 1720 1369 1456 1064 1693 1741 1725 1464 1306 1843 1890 1027 1069 1149 883 898 610
10 35 117 124 216 302 413 431 441 507 605 813 960 959 1000 1260 1215 1214 1318 1281 1014 1056 1273 1041 1112 1529 1724 1786 1753 1979 1891 1961 1590 1205 813 1369 1594 1608 1442 1377 1166 1083 1119
17 35 47 58 150 315 386 572 673 701 622 773 905 968 928 978 1240 1283 1446 1496 1173 1067 938 1007 1025 1185 1255 1259 1515 1761 1751 1886 1616 1472 1330 1542 1830 1255 1164 1386 1386 1307 1279
16 39 48 44 124 252 370 507 686 717 741 752 1038 1037 1054 1110 1162 1354 1327 1137 1183 967 990 877 765 752 974 880 1258 1420 1255 1588 1631 1517 1472 1402 1051 1650 2145 1364 1458 1351 1358
99 110 66 49 123 277 362 518 655 775 798 816 1000 1066 1010 1140 1270 1337 1237 1036 1049 891 647 416 336 861 727 705 1285 1803 1755 1457 1520 1429 1506 1430 1364 1799 1113 2312 2115 1462 1141
202 327 180 40 79 493 548 512 663 427 876 886 989 1093 1202 1285 1341 1313 788 591 664 751 875 865 869 701 860 1525 1677 1310 1320 1336 1304 1329 1540 1705 1637 1679 1591 1586 1826 1365 1875
253 320 457 366 158 157 538 845 430 411 853 965 1074 1254 1566 1197 1236 761 731 410 420 453 495 546 701 992 925 677 525 698 788 856 938 1097 1347 1354 370 291 230 507 1458 1430 1713
330 350 351 247 143 133 244 276 601 374 512 1057 1217 1294 974 595 781 595 615 483 306 191 459 275 48 52 49 73 114 114 125 184 320 859 1049 252 94 55 48 39 51 106 1139
386 394 299 130 96 51 76 105 193 274 365 613 659 517 244 430 208 189 305 360 141 73 187 80 53 54 47 42 65 40 17 7 229 658 1262 123 58 36 37 23 22 30 46
228 240 273 172 117 165 166 115 95 140 124 64 94 134 164 67 93 112 134 133 100 76 79 46 43 21 15 41 39 52 57 48 9 11 117 100 8 0 14 10 4 22 30
226 202 177 191 175 164 442 308 297 228 222 107 178 96 81 77 89 52 46 102 126 70 60 55 58 72 72 66 55 58 69 49 27 4 4 42 29 25 7 0 3 5 4
266 262 247 199 173 160 158 242 210 238 194 128 101 97 107 124 127 98 84 87 71 78 93 102 118 109 82 70 59 41 30 45 53 29 47 61 42 36 25 8 16 0 0
146 282 347 309 264 210 175 206 160 141 175 139 128 70 58 100 105 99 83 106 98 78 99 83 99 117 110 86 73 45 13 8 1 0 0 10 14 12 6 0 0 0 1
132 177 234 232 264 291 298 313 225 182 207 137 89 39 24 29 30 75 77 56 82 89 120 123 124 167 197 120 105 39 21 10 0 0 0 0 0 0 0 0 0 0 0
129 179 169 222 351 264 346 344 293 272 215 142 81 86 87 12 50 17 66 93 101 162 144 121 139 116 86 120 71 57 22 11 2 10 11 6 12 11 7 3 1 4 28
14 29 25 44 11 137 126 211 290 303 264 202 134 58 52 41 0 42 83 112 150 172 212 217 163 117 76 41 22 20 5 0 0 19 32 20 24 48 45 42 68 52 44
0 4 4 6 15 13 15 14 26 13 33 104 92 57 62 46 53 80 131 154 179 191 164 136 126 98 64 90 67 39 47 4 1 2 14 5 3 44 79 48 26 54 57
0 0 0 0 0 0 0 1 1 0 0 0 1 0 38 96 104 79 110 123 140 96 85 39 4 100 34 1 6 13 6 3 0 6 13 5 3 0 0 0 0 0 0

GFSMW_con_mucape_123.txt.gz
CAPE
243 243 216 148 101 252 511 707 980 1592 1828 1386 1172 1662 1300 1936 1718 1943 1865 1855 1732 2104 2660 1681 2160 2534 2716 2393 2012 2193 2577 2020 1165 917 680 699 567 514 655 631 707 1137 855
155 343 250 142 136 264 557 780 1141 1708 2041 1417 2817 2327 2046 2075 1427 2167 1703 1719 1861 2140 2048 2883 1675 2810 1869 2919 2475 2760 2592 1189 1345 2460 773 635 272 158 238 558 610 783 987
108 288 259 265 252 336 598 990 1276 1766 1842 2216 1495 2146 2677 2355 1218 1550 1500 1653 1874 2043 2162 2180 2447 2298 2986 2597 2468 2979 2715 1156 1303 2484 1865 1616 1058 890 401 583 600 1001 1046
125 144 269 373 249 498 473 912 1293 1695 1754 1966 2080 1789 1392 1276 1133 1450 1797 1573 1663 1805 1818 1956 2126 2491 2527 3009 1933 1714 3402 3359 2436 1077 859 2009 2024 1464 1096 258 269 878 1181
160 208 177 363 370 523 654 602 1542 2270 1971 2217 2463 1569 1755 1628 1908 1963 2254 1763 1799 1834 1366 1928 2051 2224 1725 2003 2729 2509 2496 2762 1656 1233 1760 1512 953 1307 665 600 438 313 527
153 161 285 393 574 475 786 713 1538 2397 1984 1705 1470 2296 2502 1729 1435 1423 1839 1580 1296 1524 1611 1672 2110 2207 2007 2026 2150 2416 2549 2840 2983 2229 1860 828 1061 785 952 477 959 498 834
146 97 220 320 744 652 803 745 1142 1783 1461 1852 1461 1538 1700 1537 1544 1793 1220 962 1519 1184 2884 2343 2185 2028 2345 2252 2071 2347 2710 2409 2320 3012 1983 1216 840 749 754 688 493 642 386
166 116 247 343 1116 923 771 871 1057 1519 1348 1530 1555 2123 1443 1275 1116 1631 1072 935 982 870 1953 1956 1733 1808 2003 1957 2054 1736 1568 2453 1434 2081 2710 1665 957 773 647 566 446 287 189
277 232 219 244 867 871 867 1081 1171 1308 1176 1320 1537 1795 1619 1345 979 2341 1596 1425 1482 1115 1607 1605 1857 1817 1702 1727 2017 1687 1600 1548 1968 1583 2217 1919 619 167 325 304 222 169 92
567 416 221 258 452 673 1054 973 1143 1270 1139 973 1121 1246 1278 1488 1425 2530 1908 1334 2473 1947 1741 1946 1724 1876 1782 1861 2575 2112 2552 1786 1571 1188 2173 2124 1059 1055 808 445 477 511 950
137 316 146 334 562 812 926 1182 1196 1274 1164 1008 1739 1715 1427 1389 1490 1533 1872 2009 2138 1916 1921 2130 2184 2051 1893 1898 2584 2240 2615 2283 1875 1854 1595 1591 1907 1146 616 998 1246 559 209
231 417 446 368 644 1038 1013 1160 1395 1188 1120 1410 2235 1911 1593 1416 1238 1451 1228 2154 2407 2445 2655 2215 2212 2068 2045 2315 2259 2107 1718 1820 1476 1656 2318 1379 1011 2420 2312 926 2176 1939 2216
358 328 463 703 873 1295 1373 1097 1319 1503 1092 1604 1087 1500 1340 1508 1469 1402 1413 1656 2125 1895 1598 1908 2153 2085 1708 1759 1906 2025 1890 1684 1472 1586 1718 1552 2043 2559 1313 1790 1235 1000 1297
498 287 269 323 1378 1338 1970 1862 1559 1444 1467 1267 1179 1798 1209 1230 1323 1637 2179 1561 1508 1872 1604 1654 1624 1606 1313 1314 1564 1675 1749 1532 1536 2058 1470 1571 1858 1684 1351 2439 2764 2377 1623
451 297 240 119 466 971 1294 1306 2019 2119 1740 1651 1540 1993 2549 1958 1993 1680 2230 2234 1771 1512 1296 1172 1294 1489 1310 894 1339 1386 1524 1478 1416 1352 1453 1746 1254 792 544 782 1838 1487 736
722 677 613 357 182 573 888 920 877 1954 2074 1907 1865 2537 3025 1952 1664 1858 1842 1919 1668 1484 1374 1680 1071 1331 987 252 437 311 534 937 1100 1067 1120 1271 750 168 80 74 123 263 1360
745 654 1080 259 277 203 647 1018 1041 1122 1620 1705 1633 1524 1574 1784 1845 1620 2395 2157 2027 1845 1371 1132 745 651 416 210 53 1 5 530 749 911 1138 1240 855 297 609 54 16 0 3
784 374 587 866 372 193 245 379 346 488 894 1434 1364 1496 1508 1556 1634 1413 1475 1724 1628 1059 967 348 179 225 159 69 36 49 36 136 271 187 155 1058 731 148 137 228 77 1 2
104 98 401 543 333 179 163 89 94 146 284 723 840 958 480 564 520 747 644 496 673 602 149 89 61 85 46 26 25 21 117 132 37 31 39 31 34 34 16 18 63 30 0
66 69 141 291 301 332 248 106 73 58 10 73 185 308 527 552 513 552 688 514 332 110 44 58 17 32 6 37 30 42 11 153 71 38 16 23 35 55 43 29 227 155 53
89 167 201 163 287 310 321 336 234 166 134 165 153 100 86 50 60 87 72 62 43 3 21 15 19 47 8 28 29 57 70 75 115 180 99 37 87 127 132 132 120 92 76
115 183 207 178 165 198 330 287 174 197 163 134 135 129 70 46 19 54 31 25 13 15 34 26 41 23 10 49 68 65 74 69 76 188 132 112 97 94 87 87 85 80 66
151 199 215 257 296 194 397 226 304 313 319 191 130 107 44 69 82 70 66 64 12 12 6 15 22 36 69 85 79 94 87 82 93 116 102 100 102 109 98 91 91 87 84
103 139 142 200 221 313 206 235 321 292 318 245 161 140 142 99 113 38 22 0 8 8 41 3 8 42 85 93 92 101 92 81 67 85 115 100 91 92 95 98 76 65 79
62 36 32 49 91 199 312 298 363 309 279 296 182 149 158 119 148 118 1 13 7 21 67 37 29 60 89 95 93 86 72 53 75 81 43 50 39 34 8 7 6 2 0
45 41 32 21 13 15 6 5 6 6 10 22 44 56 78 75 77 109 84 39 14 22 29 59 49 67 53 55 45 24 0 10 57 60 37 20 16 3 0 0 0 0 0